HX169 VHHH-ZJSY

Flight info

Callsign HX169
Flight time N/A
Altitude 27600
Route PECAN V10 SIKOU A202 SAMAS G221 WL UPRIS1A
Aircraft A320/M-SDFGHIM1RTUWXYZ/S

Departure

Time 2026-05-08 03:52
Airport Hong Kong International Airport (VHHH)

Arrival

Time N/A
Airport Sanya Phoenix International Airport (ZJSY)
Time Latitude Longitude Altitude Speed Heading
2026-05-08 03:35 22.30762 113.91956 32 ft 0 kts 251°
2026-05-08 03:39 22.30763 113.91960 32 ft 3 kts 250°
2026-05-08 03:39 22.30774 113.91985 32 ft 4 kts 239°
2026-05-08 03:39 22.30783 113.92006 32 ft 3 kts 250°
2026-05-08 03:40 22.30796 113.92029 31 ft 4 kts 207°
2026-05-08 03:40 22.30818 113.92031 32 ft 4 kts 161°
2026-05-08 03:40 22.30838 113.92023 32 ft 0 kts 161°
2026-05-08 03:43 22.30836 113.92024 32 ft 2 kts 161°
2026-05-08 03:44 22.30817 113.92030 32 ft 3 kts 163°
2026-05-08 03:44 22.30782 113.92064 32 ft 9 kts 112°
2026-05-08 03:44 22.30804 113.92115 32 ft 7 kts 24°
2026-05-08 03:44 22.30882 113.92097 31 ft 15 kts 341°
2026-05-08 03:45 22.30987 113.92058 32 ft 17 kts 341°
2026-05-08 03:45 22.31103 113.92017 32 ft 18 kts 341°
2026-05-08 03:45 22.31227 113.91969 32 ft 20 kts 339°
2026-05-08 03:45 22.31360 113.91919 32 ft 21 kts 341°
2026-05-08 03:46 22.31495 113.91869 32 ft 15 kts 341°
2026-05-08 03:46 22.31551 113.91824 32 ft 10 kts 285°
2026-05-08 03:46 22.31535 113.91746 31 ft 11 kts 251°
2026-05-08 03:46 22.31508 113.91661 31 ft 13 kts 250°
2026-05-08 03:47 22.31477 113.91566 32 ft 14 kts 251°
2026-05-08 03:47 22.31443 113.91461 31 ft 16 kts 251°
2026-05-08 03:47 22.31406 113.91344 31 ft 17 kts 251°
2026-05-08 03:47 22.31365 113.91217 31 ft 19 kts 251°
2026-05-08 03:48 22.31320 113.91079 32 ft 20 kts 251°
2026-05-08 03:48 22.31273 113.90933 32 ft 21 kts 251°
2026-05-08 03:48 22.31222 113.90777 32 ft 23 kts 251°
2026-05-08 03:48 22.31169 113.90613 30 ft 24 kts 250°
2026-05-08 03:49 22.31114 113.90441 32 ft 25 kts 251°
2026-05-08 03:49 22.31059 113.90267 32 ft 24 kts 251°
2026-05-08 03:49 22.31003 113.90094 31 ft 23 kts 250°
2026-05-08 03:49 22.30962 113.89967 32 ft 10 kts 251°
2026-05-08 03:50 22.30971 113.89909 31 ft 8 kts 312°
2026-05-08 03:50 22.31022 113.89883 29 ft 10 kts 340°
2026-05-08 03:50 22.31091 113.89862 30 ft 9 kts
2026-05-08 03:50 22.31126 113.89905 30 ft 7 kts 69°
2026-05-08 03:51 22.31144 113.89962 30 ft 15 kts 71°
2026-05-08 03:51 22.31259 113.90318 31 ft 88 kts 71°
2026-05-08 03:51 22.31527 113.91149 32 ft 148 kts 71°
2026-05-08 03:51 22.31916 113.92362 159 ft 182 kts 69°
2026-05-08 03:52 22.32313 113.93635 964 ft 179 kts 69°
2026-05-08 03:52 22.32731 113.94925 1520 ft 189 kts 69°
2026-05-08 03:52 22.33194 113.96339 1803 ft 210 kts 67°
2026-05-08 03:52 22.33944 113.97767 2255 ft 224 kts 53°
2026-05-08 03:53 22.34859 113.99197 2823 ft 242 kts 54°
2026-05-08 03:53 22.35856 114.00768 3276 ft 262 kts 55°
2026-05-08 03:53 22.36895 114.02419 4019 ft 269 kts 55°
2026-05-08 03:53 22.37958 114.04111 4826 ft 274 kts 55°
2026-05-08 03:54 22.39034 114.05822 5603 ft 278 kts 55°
2026-05-08 03:54 22.39840 114.07732 6358 ft 284 kts 79°
2026-05-08 03:54 22.39801 114.09856 7074 ft 287 kts 106°
2026-05-08 03:54 22.39059 114.11871 7817 ft 289 kts 115°
2026-05-08 03:55 22.38241 114.13872 8559 ft 293 kts 115°
2026-05-08 03:55 22.37411 114.15902 9290 ft 298 kts 115°
2026-05-08 03:55 22.36566 114.17973 10017 ft 303 kts 114°
2026-05-08 03:55 22.35725 114.20045 10670 ft 307 kts 114°
2026-05-08 03:56 22.34867 114.22167 11320 ft 311 kts 114°
2026-05-08 03:56 22.33952 114.24360 11572 ft 331 kts 119°
2026-05-08 03:56 22.32581 114.26435 11809 ft 348 kts 135°
2026-05-08 03:56 22.30689 114.28085 12372 ft 353 kts 151°
2026-05-08 03:57 22.28483 114.29260 12978 ft 356 kts 157°
2026-05-08 03:57 22.26209 114.30379 13617 ft 361 kts 158°
2026-05-08 03:57 22.23944 114.31583 14166 ft 366 kts 150°
2026-05-08 03:57 22.21840 114.33168 14710 ft 370 kts 145°
2026-05-08 03:58 22.19757 114.34823 15243 ft 374 kts 145°
2026-05-08 03:58 22.17650 114.36494 15755 ft 377 kts 145°
2026-05-08 03:58 22.15521 114.38177 15935 ft 380 kts 145°
2026-05-08 03:58 22.13389 114.39852 15986 ft 379 kts 147°
2026-05-08 03:59 22.11083 114.41178 15990 ft 374 kts 162°
2026-05-08 03:59 22.08573 114.41797 15986 ft 369 kts 178°
2026-05-08 03:59 22.06002 114.41679 15990 ft 371 kts 193°
2026-05-08 03:59 22.03549 114.40851 15988 ft 372 kts 207°
2026-05-08 04:00 22.01332 114.39413 15994 ft 374 kts 216°
2026-05-08 04:00 21.99172 114.37819 15993 ft 379 kts 217°
2026-05-08 04:00 21.96984 114.36196 15991 ft 383 kts 217°
2026-05-08 04:00 21.94803 114.34537 15995 ft 386 kts 218°
2026-05-08 04:01 21.92656 114.32775 15996 ft 389 kts 220°
2026-05-08 04:01 21.90541 114.30955 15994 ft 392 kts 221°
2026-05-08 04:01 21.88437 114.29121 15988 ft 382 kts 220°
2026-05-08 04:01 21.86408 114.27380 15988 ft 366 kts 220°
2026-05-08 04:02 21.84459 114.25713 15989 ft 361 kts 220°
2026-05-08 04:02 21.82498 114.24026 15769 ft 362 kts 220°
2026-05-08 04:02 21.80518 114.22364 15350 ft 360 kts 219°
2026-05-08 04:02 21.78528 114.20754 15114 ft 354 kts 218°
2026-05-08 04:03 21.76549 114.19165 15113 ft 355 kts 218°
2026-05-08 04:03 21.72767 114.15867 15537 ft 343 kts 227°
2026-05-08 04:03 21.71487 114.13767 15806 ft 333 kts 250°
2026-05-08 04:04 21.71038 114.11357 15962 ft 330 kts 265°
2026-05-08 04:04 21.70889 114.08899 16073 ft 328 kts 267°
2026-05-08 04:04 21.70781 114.06491 16516 ft 317 kts 268°
2026-05-08 04:04 21.70713 114.04160 16919 ft 307 kts 269°
2026-05-08 04:05 21.70684 114.01853 16944 ft 309 kts 269°
2026-05-08 04:05 21.70649 113.99557 16610 ft 311 kts 268°
2026-05-08 04:05 21.70572 113.97233 16396 ft 321 kts 268°
2026-05-08 04:05 21.70531 113.94799 16212 ft 328 kts 275°
2026-05-08 04:06 21.71058 113.92411 15705 ft 334 kts 294°
2026-05-08 04:06 21.72413 113.90353 15084 ft 342 kts 316°
2026-05-08 04:06 21.74423 113.88985 14606 ft 346 kts 337°
2026-05-08 04:06 21.76725 113.88216 14164 ft 347 kts 341°
2026-05-08 04:07 21.79039 113.87493 13739 ft 346 kts 342°
2026-05-08 04:07 21.81344 113.86782 13276 ft 344 kts 342°
2026-05-08 04:07 21.83636 113.86077 12797 ft 341 kts 342°
2026-05-08 04:07 21.85907 113.85375 12222 ft 338 kts 342°
2026-05-08 04:08 21.88137 113.84679 11930 ft 326 kts 342°
2026-05-08 04:08 21.90262 113.84013 11802 ft 311 kts 342°
2026-05-08 04:08 21.92306 113.83371 11506 ft 302 kts 342°
2026-05-08 04:08 21.94316 113.82738 11110 ft 299 kts 342°
2026-05-08 04:09 21.96306 113.82109 10676 ft 297 kts 342°
2026-05-08 04:09 21.98286 113.81484 10234 ft 296 kts 342°
2026-05-08 04:09 22.00243 113.80869 9864 ft 285 kts 342°
2026-05-08 04:09 22.02064 113.80316 9636 ft 261 kts 342°
2026-05-08 04:10 22.03783 113.79795 9071 ft 253 kts 342°
2026-05-08 04:10 22.05467 113.79273 8517 ft 252 kts 342°
2026-05-08 04:10 22.07134 113.78738 8163 ft 249 kts 342°
2026-05-08 04:10 22.08787 113.78206 7815 ft 247 kts 342°
2026-05-08 04:11 22.10434 113.77680 7491 ft 246 kts 343°
2026-05-08 04:11 22.12105 113.77348 7144 ft 244 kts 359°
2026-05-08 04:11 22.13759 113.77693 6809 ft 243 kts 26°
2026-05-08 04:11 22.15047 113.78833 6460 ft 242 kts 56°
2026-05-08 04:12 22.15648 113.80504 6063 ft 241 kts 84°
2026-05-08 04:12 22.15454 113.82257 5661 ft 240 kts 112°
2026-05-08 04:12 22.14523 113.83724 5246 ft 238 kts 140°
2026-05-08 04:12 22.13121 113.84649 4851 ft 237 kts 154°
2026-05-08 04:13 22.11639 113.85426 4524 ft 235 kts 155°
2026-05-08 04:13 22.10148 113.86162 4480 ft 237 kts 156°
2026-05-08 04:13 22.08637 113.86894 4478 ft 238 kts 156°
2026-05-08 04:13 22.07119 113.87608 4490 ft 238 kts 163°
2026-05-08 04:14 22.05493 113.87764 4487 ft 236 kts 190°
2026-05-08 04:14 22.03994 113.87103 4487 ft 235 kts 218°
2026-05-08 04:14 22.02949 113.85779 4484 ft 234 kts 245°
2026-05-08 04:14 22.02587 113.84090 4491 ft 233 kts 272°
2026-05-08 04:15 22.02972 113.82408 4481 ft 233 kts 298°
2026-05-08 04:15 22.04022 113.81088 4475 ft 234 kts 325°
2026-05-08 04:15 22.05454 113.80250 4483 ft 235 kts 334°
2026-05-08 04:15 22.06932 113.79499 4455 ft 237 kts 335°
2026-05-08 04:16 22.08418 113.78750 4259 ft 234 kts 334°
2026-05-08 04:16 22.09886 113.78002 4067 ft 232 kts 334°
2026-05-08 04:16 22.11353 113.77257 3872 ft 232 kts 335°
2026-05-08 04:16 22.12812 113.76529 3694 ft 231 kts 335°
2026-05-08 04:17 22.14273 113.75814 3484 ft 230 kts 336°
2026-05-08 04:17 22.15714 113.75130 3241 ft 228 kts 336°
2026-05-08 04:17 22.17152 113.74439 2971 ft 223 kts 335°
2026-05-08 04:17 22.18537 113.73745 2732 ft 215 kts 334°
2026-05-08 04:18 22.19888 113.73152 2513 ft 206 kts 348°
2026-05-08 04:18 22.21269 113.73155 2196 ft 196 kts 17°
2026-05-08 04:18 22.22433 113.73801 2128 ft 185 kts 37°
2026-05-08 04:18 22.23444 113.74666 2150 ft 183 kts 43°
2026-05-08 04:19 22.24364 113.75563 1903 ft 176 kts 39°
2026-05-08 04:19 22.25206 113.76468 1694 ft 163 kts 54°
2026-05-08 04:19 22.25656 113.77548 1568 ft 155 kts 75°
2026-05-08 04:19 22.25987 113.78663 1463 ft 157 kts 72°
2026-05-08 04:20 22.26331 113.79765 1463 ft 156 kts 75°
2026-05-08 04:20 22.26715 113.80848 1398 ft 148 kts 71°
2026-05-08 04:20 22.27056 113.81887 1419 ft 150 kts 72°
2026-05-08 04:20 22.27425 113.82953 1293 ft 153 kts 65°
2026-05-08 04:21 22.27825 113.84001 1236 ft 148 kts 81°
2026-05-08 04:21 22.27980 113.85077 1096 ft 150 kts 67°
2026-05-08 04:21 22.28448 113.86084 849 ft 150 kts 68°
2026-05-08 04:21 22.28789 113.87156 609 ft 153 kts 73°
2026-05-08 04:22 22.29108 113.88229 379 ft 155 kts 74°
2026-05-08 04:22 22.29465 113.89339 218 ft 159 kts 70°
2026-05-08 04:22 22.29826 113.90439 34 ft 148 kts 69°
2026-05-08 04:22 22.30101 113.91288 32 ft 79 kts 71°
2026-05-08 04:23 22.30180 113.91542 32 ft 0 kts 70°
2026-05-08 04:25 22.35506 114.08103 3928 ft 154 kts 251°
2026-05-08 04:25 22.35656 114.08564 3485 ft 168 kts 251°
2026-05-08 04:25 22.35698 114.08159 3361 ft 164 kts 290°
2026-05-08 04:26 22.35616 114.08161 3381 ft 160 kts 262°
2026-05-08 04:26 22.35532 114.08172 3323 ft 163 kts 254°
2026-05-08 04:26 22.35654 114.08559 2730 ft 159 kts 254°
2026-05-08 04:26 22.35466 114.08206 2659 ft 164 kts 253°
2026-05-08 04:27 22.35653 114.08556 2689 ft 156 kts 255°